Weather History for Stevensville, MD

Change the Weather History Date:

Tuesday, July 23, 2013

  Actual Average (KESN) Record (KESN)
Temperature  
Mean Temperature 80 °F -  
Max Temperature 86 °F 86 °F 101 °F (1952)
Min Temperature 73 °F 65 °F 33 °F (2006)
Cooling Degree Days 14    
Growing Degree Days 30 (Base 50)    
Moisture  
Dew Point 71 °F    
Average Humidity 75    
Maximum Humidity 100    
Minimum Humidity 51    
Precipitation  
Precipitation 0.00 in - - ()
Sea Level Pressure  
Sea Level Pressure 29.69 in    
Wind  
Wind Speed 6 mph (West)    
Max Wind Speed 16 mph    
Max Gust Speed 21 mph    
Visibility 10 miles    
Events Rain , Thunderstorm    
Averages and records for this station are not official NWS values.
T = Trace of Precipitation, MM = Missing Value Source: NWS Daily Summary

Daily Weather History Graph

Daily Weather History Graph

Search for Another Location

Airport:

Trip Planner

Search our weather history database for the weather conditions in past years. The results will help you decide how hot, cold, wet, or windy it might be!

Date:

Astronomy

Jul. 23, 2013 Rise Set
Actual Time 5:58 AM EDT 8:24 PM EDT
Civil Twilight 5:28 AM EDT 8:55 PM EDT
Nautical Twilight 4:50 AM EDT 9:32 PM EDT
Astronomical Twilight 4:08 AM EDT 10:14 PM EDT
Moon 8:52 PM EDT (7/23) 7:03 AM EDT (7/23)
Length of Visible Light 15h 27m
Length of Day
14h 26m
Full, 99% of the Moon is Illuminated
Jul 23
Full
Jul 29
Last Quarter
Aug 6
New
Aug 14
First Quarter
Aug 20
Full

Hourly Weather History & Observations

Time (EDT) Temp. Heat Index Dew Point Humidity Pressure Visibility Wind Dir Wind Speed Gust Speed Precip Events Conditions
12:05 AM 80.6 °F 85.4 °F 73.4 °F 79% 29.77 in 10.0 mi South 8.1 mph - N/A   Clear
12:25 AM 80.6 °F 85.4 °F 73.4 °F 79% 29.76 in 10.0 mi South 8.1 mph - N/A   Clear
12:45 AM 80.6 °F 85.4 °F 73.4 °F 79% 29.75 in 10.0 mi South 6.9 mph 16.1 mph N/A   Scattered Clouds
1:06 AM 80.6 °F 85.4 °F 73.4 °F 79% 29.74 in 10.0 mi West 12.7 mph 16.1 mph N/A   Mostly Cloudy
1:26 AM 77.0 °F - 73.4 °F 89% 29.74 in 4.0 mi West 11.5 mph 19.6 mph N/A Rain , Thunderstorm Rain
1:46 AM 75.2 °F - 73.4 °F 94% 29.73 in 10.0 mi West 12.7 mph 18.4 mph N/A Rain , Thunderstorm Light Thunderstorms and Rain
2:06 AM 73.4 °F - 73.4 °F 100% 29.73 in 4.0 mi South 5.8 mph - N/A Rain , Thunderstorm Heavy Thunderstorms and Rain
2:13 AM 73.4 °F - 73.4 °F 100% 29.73 in 7.0 mi SSW 4.6 mph - N/A Rain , Thunderstorm Light Thunderstorms and Rain
2:46 AM 77.0 °F - 73.4 °F 89% 29.73 in 10.0 mi SW 5.8 mph - N/A Thunderstorm Scattered Clouds
3:06 AM 77.0 °F - 73.4 °F 89% 29.73 in 10.0 mi Calm Calm - N/A   Mostly Cloudy
3:26 AM 77.0 °F - 73.4 °F 89% 29.72 in 10.0 mi Calm Calm - N/A Thunderstorm Thunderstorm
3:46 AM 75.2 °F - 73.4 °F 94% 29.72 in 10.0 mi Calm Calm - N/A Thunderstorm Mostly Cloudy
4:06 AM 73.4 °F - 73.4 °F 100% 29.71 in 10.0 mi Calm Calm - N/A   Mostly Cloudy
4:26 AM 75.2 °F - 73.4 °F 94% 29.71 in 10.0 mi Calm Calm - N/A   Overcast
4:46 AM 75.2 °F - 73.4 °F 94% 29.71 in 10.0 mi Calm Calm - N/A   Overcast
5:06 AM 75.2 °F - 73.4 °F 94% 29.70 in 10.0 mi Calm Calm - N/A   Overcast
5:26 AM 75.2 °F - 73.4 °F 94% 29.70 in 10.0 mi Calm Calm - N/A   Overcast
5:46 AM 75.2 °F - 75.2 °F 100% 29.70 in 10.0 mi Calm Calm - N/A   Overcast
6:06 AM 77.0 °F - 75.2 °F 94% 29.70 in 10.0 mi SSW 3.5 mph - N/A   Mostly Cloudy
6:26 AM 77.0 °F - 75.2 °F 94% 29.70 in 10.0 mi WSW 4.6 mph - N/A   Mostly Cloudy
6:46 AM 77.0 °F - 73.4 °F 89% 29.71 in 10.0 mi West 5.8 mph - N/A   Overcast
7:06 AM 77.0 °F - 75.2 °F 94% 29.71 in 10.0 mi West 5.8 mph - N/A   Overcast
7:26 AM 77.0 °F - 75.2 °F 94% 29.70 in 10.0 mi WSW 4.6 mph - N/A   Overcast
7:46 AM 77.0 °F - 73.4 °F 89% 29.71 in 10.0 mi West 5.8 mph - N/A   Overcast
8:06 AM 77.0 °F - 73.4 °F 89% 29.71 in 10.0 mi West 4.6 mph - N/A   Overcast
8:26 AM 77.0 °F - 73.4 °F 89% 29.71 in 10.0 mi WNW 5.8 mph - N/A   Overcast
8:46 AM 78.8 °F - 73.4 °F 83% 29.71 in 10.0 mi West 5.8 mph - N/A   Scattered Clouds
9:06 AM 77.0 °F - 73.4 °F 89% 29.70 in 10.0 mi WSW 4.6 mph - N/A   Scattered Clouds
9:27 AM 78.8 °F - 73.4 °F 83% 29.70 in 10.0 mi West 6.9 mph - N/A   Clear
9:47 AM 78.8 °F - 71.6 °F 78% 29.70 in 10.0 mi West 5.8 mph - N/A   Clear
10:07 AM 78.8 °F - 69.8 °F 74% 29.70 in 10.0 mi WNW 5.8 mph - N/A   Scattered Clouds
10:27 AM 80.6 °F 84.6 °F 71.6 °F 74% 29.70 in 10.0 mi WNW 6.9 mph - N/A   Scattered Clouds
10:47 AM 80.6 °F 84.6 °F 71.6 °F 74% 29.69 in 10.0 mi West 4.6 mph - N/A   Clear
11:07 AM 80.6 °F 84.6 °F 71.6 °F 74% 29.69 in 10.0 mi West 5.8 mph - N/A   Clear
11:27 AM 80.6 °F 84.6 °F 71.6 °F 74% 29.70 in 10.0 mi West 5.8 mph - N/A   Clear
11:47 AM 82.4 °F 87.2 °F 71.6 °F 70% 29.69 in 10.0 mi West 5.8 mph - N/A   Clear
12:07 PM 82.4 °F 87.2 °F 71.6 °F 70% 29.69 in 10.0 mi West 3.5 mph - N/A   Clear
12:27 PM 78.8 °F - 73.4 °F 83% 29.69 in 2.5 mi Calm Calm - N/A Rain Heavy Rain
12:47 PM 80.6 °F 85.4 °F 73.4 °F 79% 29.69 in 10.0 mi West 4.6 mph - N/A   Scattered Clouds
1:07 PM 82.4 °F 87.2 °F 71.6 °F 70% 29.69 in 10.0 mi West 4.6 mph - N/A   Scattered Clouds
1:27 PM 82.4 °F 86.3 °F 69.8 °F 66% 29.68 in 10.0 mi West 6.9 mph - N/A Rain Light Rain
1:47 PM 84.2 °F 88.4 °F 69.8 °F 62% 29.67 in 10.0 mi West 5.8 mph - N/A   Clear
2:07 PM 86.0 °F 90.4 °F 69.8 °F 58% 29.67 in 10.0 mi WSW 5.8 mph - N/A   Clear
2:27 PM 86.0 °F 90.4 °F 69.8 °F 58% 29.66 in 10.0 mi West 4.6 mph - N/A   Clear
2:47 PM 86.0 °F 90.4 °F 69.8 °F 58% 29.67 in 10.0 mi WNW 9.2 mph - N/A   Scattered Clouds
3:07 PM 86.0 °F 89.4 °F 68.0 °F 55% 29.67 in 10.0 mi WNW 10.4 mph - N/A   Clear
3:27 PM 84.2 °F 87.3 °F 68.0 °F 58% 29.66 in 10.0 mi West 10.4 mph - N/A   Scattered Clouds
3:47 PM 84.2 °F 87.3 °F 68.0 °F 58% 29.66 in 10.0 mi WNW 10.4 mph - N/A   Scattered Clouds
4:07 PM 86.0 °F 89.4 °F 68.0 °F 55% 29.65 in 10.0 mi West 13.8 mph - N/A   Scattered Clouds
4:27 PM 86.0 °F 89.4 °F 68.0 °F 55% 29.64 in 10.0 mi West 10.4 mph 16.1 mph N/A   Clear
4:47 PM 86.0 °F 89.4 °F 68.0 °F 55% 29.64 in 10.0 mi West 12.7 mph 20.7 mph N/A   Clear
5:07 PM 86.0 °F 89.4 °F 68.0 °F 55% 29.65 in 10.0 mi West 9.2 mph - N/A   Clear
5:27 PM 86.0 °F 89.4 °F 68.0 °F 55% 29.64 in 10.0 mi WNW 10.4 mph 16.1 mph N/A   Scattered Clouds
5:47 PM 86.0 °F 88.2 °F 66.2 °F 51% 29.64 in 10.0 mi WNW 16.1 mph 19.6 mph N/A   Clear
6:07 PM 84.2 °F 86.6 °F 66.2 °F 55% 29.64 in 10.0 mi WNW 12.7 mph 18.4 mph N/A   Clear
6:28 PM 84.2 °F 86.6 °F 66.2 °F 55% 29.64 in 10.0 mi West 10.4 mph - N/A   Clear
6:48 PM 84.2 °F 86.6 °F 66.2 °F 55% 29.64 in 10.0 mi WNW 11.5 mph - N/A   Clear
7:08 PM 82.4 °F 85.4 °F 68.0 °F 62% 29.65 in 10.0 mi WNW 9.2 mph - N/A   Clear
7:28 PM 82.4 °F 84.6 °F 66.2 °F 58% 29.66 in 10.0 mi West 9.2 mph - N/A   Clear
7:48 PM 82.4 °F 84.6 °F 66.2 °F 58% 29.66 in 10.0 mi West 10.4 mph - N/A   Clear
8:08 PM 82.4 °F 85.4 °F 68.0 °F 62% 29.66 in 10.0 mi WNW 11.5 mph - N/A   Clear
8:28 PM 80.6 °F 82.7 °F 66.2 °F 61% 29.67 in 10.0 mi WNW 9.2 mph - N/A   Clear
8:48 PM 80.6 °F 82.7 °F 66.2 °F 61% 29.67 in 10.0 mi West 8.1 mph - N/A   Clear
9:08 PM 80.6 °F 83.2 °F 68.0 °F 65% 29.68 in 10.0 mi West 6.9 mph - N/A   Clear
9:28 PM 80.6 °F 83.2 °F 68.0 °F 65% 29.68 in 10.0 mi West 6.9 mph - N/A   Clear
9:48 PM 80.6 °F 83.2 °F 68.0 °F 65% 29.68 in 10.0 mi West 4.6 mph - N/A   Clear
10:48 PM 78.8 °F - 68.0 °F 69% 29.69 in 10.0 mi Calm Calm - N/A   Clear
11:08 PM 78.8 °F - 68.0 °F 69% 29.69 in 10.0 mi Calm Calm - N/A   Clear
11:28 PM 77.0 °F - 68.0 °F 74% 29.70 in 10.0 mi West 3.5 mph - N/A   Clear
11:48 PM 78.8 °F - 68.0 °F 69% 29.70 in 10.0 mi Calm Calm - N/A   Clear